Location: Helsinki
(60.1699°N, 24.9384°E)
Time: 18:42:06
(UTC+03:00)

Transit 2A Rocket - All Passes

Search period start: 21 September 2023 00:00
Search period end: 01 October 2023 00:00
Orbit: 590 x 907 km, 66.7° (Epoch: 20 September)

Date Brightness Start Highest point End Pass type
(mag) Time Alt. Az. Time Alt. Az. Time Alt. Az.
21 Sep - 00:16:36 10° NW 00:21:21 81° SW 00:25:45 10° SE visible
21 Sep - 01:59:44 10° WNW 02:03:11 21° WSW 02:06:29 10° SSW visible
21 Sep - 16:41:41 10° S 16:46:19 29° ESE 16:50:36 10° ENE daylight
21 Sep - 18:23:07 10° SW 18:28:28 89° NNW 18:33:20 10° NE daylight
21 Sep - 20:06:30 10° W 20:11:25 44° NNW 20:15:55 10° ENE visible
21 Sep - 21:50:07 10° WNW 21:54:46 40° N 21:59:04 10° E visible
21 Sep - 23:33:03 10° NW 23:37:50 76° NE 23:42:16 10° ESE visible
22 Sep - 01:15:55 10° WNW 01:19:59 31° WSW 01:23:51 10° S visible
22 Sep - 15:59:12 10° SSE 16:03:05 21° ESE 16:06:45 10° ENE daylight
22 Sep - 17:39:40 10° SW 17:44:58 69° SE 17:49:49 10° NE daylight
22 Sep - 19:22:40 10° W 19:27:43 51° NNW 19:32:21 10° NE daylight
22 Sep - 21:06:23 10° WNW 21:11:02 38° N 21:15:20 10° ENE visible
22 Sep - 22:49:30 10° NW 22:54:15 59° NNE 22:58:39 10° ESE visible
23 Sep - 00:32:15 10° NW 00:36:42 46° SW 00:40:52 10° SSE visible
23 Sep - 02:16:59 10° W 02:18:02 11° WSW 02:19:04 10° WSW visible
23 Sep - 15:17:19 10° SE 15:19:57 14° ESE 15:22:29 10° E daylight
23 Sep - 16:56:24 10° SSW 17:01:33 50° SE 17:06:17 10° NE daylight
23 Sep - 18:38:54 10° WSW 18:44:05 62° NNW 18:48:49 10° NE daylight
23 Sep - 20:22:34 10° WNW 20:27:17 38° N 20:31:37 10° ENE visible
23 Sep - 22:05:55 10° NW 22:10:36 48° NNE 22:14:57 10° E visible
23 Sep - 23:48:40 10° NW 23:53:20 68° SW 23:57:40 10° SE visible
24 Sep - 01:32:04 10° WNW 01:34:59 17° WSW 01:37:48 10° SSW visible
24 Sep - 16:13:23 10° S 16:18:13 35° SE 16:22:41 10° ENE daylight
24 Sep - 17:55:13 10° WSW 18:00:30 78° NW 18:05:19 10° NE daylight
24 Sep - 19:38:44 10° W 19:43:32 41° NNW 19:47:58 10° ENE daylight
24 Sep - 21:22:16 10° WNW 21:26:54 42° NNE 21:31:11 10° E visible
24 Sep - 23:05:07 10° NW 23:09:51 88° NE 23:14:15 10° SE visible
25 Sep - 00:48:05 10° WNW 00:51:50 25° WSW 00:55:24 10° S visible
25 Sep - 15:30:40 10° S 15:34:56 25° ESE 15:38:57 10° ENE daylight
25 Sep - 17:11:40 10° SW 17:16:58 81° SE 17:21:48 10° NE daylight
25 Sep - 18:54:54 10° W 18:59:49 46° NNW 19:04:21 10° NE daylight
25 Sep - 20:38:33 10° WNW 20:43:10 39° N 20:47:26 10° ENE visible
25 Sep - 22:21:34 10° NW 22:26:18 67° NNE 22:30:41 10° ESE visible
26 Sep - 00:04:21 10° WNW 00:08:36 37° SW 00:12:36 10° SSE visible
26 Sep - 14:48:24 10° SSE 14:51:45 17° ESE 14:54:57 10° ENE daylight
26 Sep - 16:28:18 10° SSW 16:33:31 59° SE 16:38:17 10° NE daylight
26 Sep - 18:11:05 10° WSW 18:16:09 55° NNW 18:20:48 10° NE daylight
26 Sep - 19:54:47 10° WNW 19:59:25 38° N 20:03:42 10° ENE visible
26 Sep - 21:37:59 10° NW 21:42:41 53° NNE 21:47:01 10° ESE visible
26 Sep - 23:20:43 10° NW 23:25:15 55° SW 23:29:31 10° SSE visible
27 Sep - 01:04:36 10° W 01:06:44 13° WSW 01:08:50 10° SW visible
27 Sep - 14:07:12 10° ESE 14:08:39 11° ESE 14:10:06 10° E daylight
27 Sep - 15:45:08 10° SSW 15:50:07 42° SE 15:54:43 10° ENE daylight
27 Sep - 17:27:20 10° WSW 17:32:32 68° NNW 17:37:17 10° NE daylight
27 Sep - 19:10:58 10° WNW 19:15:40 39° N 19:20:00 10° ENE daylight
27 Sep - 20:54:23 10° NW 20:59:00 44° NNE 21:03:17 10° E visible
27 Sep - 22:37:09 10° NW 22:41:50 79° SW 22:46:12 10° SE visible
28 Sep - 00:20:19 10° WNW 00:23:39 20° WSW 00:26:50 10° SSW visible
28 Sep - 15:02:14 10° S 15:06:49 30° ESE 15:11:03 10° ENE daylight
28 Sep - 16:43:43 10° SW 16:48:58 88° NW 16:53:46 10° NE daylight
28 Sep - 18:27:07 10° W 18:31:55 43° NNW 18:36:22 10° ENE daylight
28 Sep - 20:10:42 10° WNW 20:15:16 40° N 20:19:31 10° E visible
28 Sep - 21:53:36 10° NW 21:58:18 77° NNE 22:02:42 10° ESE visible
28 Sep - 23:36:28 10° WNW 23:40:26 30° WSW 23:44:14 10° S visible
29 Sep - 14:19:43 10° SSE 14:23:34 21° ESE 14:27:13 10° ENE daylight
29 Sep - 16:00:14 10° SW 16:05:28 70° SE 16:10:16 10° NE daylight
29 Sep - 17:43:16 10° W 17:48:13 49° NNW 17:52:46 10° NE daylight
29 Sep - 19:26:57 10° WNW 19:31:32 38° N 19:35:46 10° ENE daylight
29 Sep - 21:10:03 10° NW 21:14:43 59° NNE 21:19:05 10° ESE visible
29 Sep - 22:52:47 10° WNW 22:57:09 45° SW 23:01:17 10° SSE visible
30 Sep - 00:37:58 10° W 00:38:28 10° WSW 00:38:57 10° WSW visible
30 Sep - 13:37:48 10° SE 13:40:25 14° ESE 13:42:57 10° E daylight
30 Sep - 15:16:57 10° SSW 15:22:03 50° SE 15:26:43 10° NE daylight
30 Sep - 16:59:29 10° WSW 17:04:35 60° NNW 17:09:14 10° NE daylight
30 Sep - 18:43:09 10° WNW 18:47:46 38° N 18:52:02 10° ENE daylight
30 Sep - 20:26:27 10° NW 20:31:04 48° NNE 20:35:22 10° E visible
30 Sep - 22:09:11 10° NW 22:13:46 66° SW 22:18:04 10° SE visible
30 Sep - 23:52:38 10° WNW 23:55:24 16° WSW 23:58:06 10° SSW visible
